Kiana, AK

2:27 AM AKST on February 22, 2017 (GMT -0900)
Baker Memorial

Weather History for PAIK - October, 2011

Change the Weather History Date:

Tuesday, October 25, 2011

  Actual Average (PASK) Record (PASK)
Temperature  
Mean Temperature 27 °F -  
Max Temperature 26 °F 19 °F 39 °F (2002)
Min Temperature 24 °F 11 °F -13 °F (1996)
Degree Days  
Heating Degree Days 38    
Moisture  
Dew Point 22 °F    
Average Humidity 84    
Maximum Humidity 96    
Minimum Humidity 69    
Precipitation  
Precipitation 0.00 in - - ()
Sea Level Pressure  
Sea Level Pressure 29.29 in    
Wind  
Wind Speed 9 mph (ENE)    
Max Wind Speed 16 mph    
Max Gust Speed 23 mph    
Visibility 9 miles    
Events Snow    
Averages and records for this station are not official NWS values.
T = Trace of Precipitation, MM = Missing Value Source: NWS Daily Summary

Daily Weather History Graph

Daily Weather History Graph

Search for Another Location

Airport or City:

Trip Planner

Search our weather history database for the weather conditions in past years. The results will help you decide how hot, cold, wet, or windy it might be!

Date:

Astronomy

Oct. 25, 2011 Rise Set
Actual Time 10:17 AM AKDT 6:32 PM AKDT
Civil Twilight 9:19 AM AKDT 7:30 PM AKDT
Nautical Twilight 8:17 AM AKDT 8:32 PM AKDT
Astronomical Twilight 7:15 AM AKDT 9:34 PM AKDT
Moon 8:59 AM AKDT (10/25) 5:34 PM AKDT (10/25)
Length of Visible Light 10h 10m
Length of Day
8h 14m
Waning Crescent, 2% of the Moon is Illuminated
Oct 25
Waning Crescent
Oct 26
New
Nov 2
First Quarter
Nov 10
Full
Nov 18
Last Quarter

Hourly Weather History & Observations

Time (AKDT) Temp. Windchill Dew Point Humidity Pressure Visibility Wind Dir Wind Speed Gust Speed Precip Events Conditions
12:01 AM 26.1 °F 16.8 °F 21.0 °F 81% 29.57 in 10.0 mi NE 9.2 mph - N/A   Clear
1:01 AM 26.1 °F 17.6 °F 21.0 °F 81% 29.55 in 10.0 mi NE 8.1 mph 16.1 mph N/A   Clear
2:01 AM 27.0 °F 15.6 °F 19.9 °F 75% 29.52 in 10.0 mi ENE 13.8 mph 23.0 mph N/A   Clear
3:01 AM 25.0 °F 18.1 °F 19.9 °F 81% 29.49 in 10.0 mi NNE 5.8 mph - N/A   Clear
4:01 AM 26.1 °F 20.5 °F 19.9 °F 78% 29.47 in 10.0 mi Variable 4.6 mph - N/A   Scattered Clouds
5:01 AM 24.1 °F 19.7 °F 19.0 °F 81% 29.44 in 10.0 mi NE 3.5 mph - N/A   Overcast
6:01 AM 24.1 °F 13.7 °F 18.0 °F 77% 29.43 in 10.0 mi East 10.4 mph - N/A   Overcast
7:01 AM 27.0 °F 14.7 °F 18.0 °F 69% 29.42 in 10.0 mi NE 16.1 mph 23.0 mph N/A   Overcast
8:01 AM 26.1 °F 16.8 °F 19.9 °F 78% 29.40 in 9.0 mi NE 9.2 mph - 0.00 in Snow Light Snow
8:15 AM 26.6 °F 16.2 °F 19.4 °F 74% 29.27 in 9.0 mi NE 11.5 mph 19.6 mph 0.00 in Snow Light Snow
8:38 AM 26.6 °F 16.2 °F 19.4 °F 74% 29.26 in 9.0 mi NE 11.5 mph - 0.00 in Snow Light Snow
9:01 AM 26.1 °F 15.0 °F 21.0 °F 81% 29.38 in 9.0 mi NE 12.7 mph - 0.00 in Snow Light Snow
10:01 AM 26.1 °F 20.5 °F 21.0 °F 81% 29.36 in 9.0 mi Variable 4.6 mph - 0.00 in   Overcast
11:01 AM 24.1 °F 15.2 °F 21.0 °F 88% 29.34 in 9.0 mi East 8.1 mph - 0.00 in Snow Light Snow
11:43 AM 24.8 °F 16.9 °F 21.2 °F 86% 29.21 in 9.0 mi East 6.9 mph - 0.00 in Snow Light Snow
12:01 PM 25.0 °F 18.1 °F 21.9 °F 88% 29.33 in 9.0 mi East 5.8 mph - 0.00 in Snow Light Snow
1:01 PM 27.0 °F 16.1 °F 23.0 °F 85% 29.31 in 9.0 mi ENE 12.7 mph 20.7 mph 0.00 in Snow Light Snow
1:24 PM 28.4 °F 17.0 °F 23.0 °F 80% 29.17 in 9.0 mi ENE 15.0 mph 18.4 mph 0.00 in Snow Light Snow
2:01 PM 28.9 °F 21.9 °F 23.0 °F 78% 29.29 in 9.0 mi ENE 6.9 mph - 0.00 in Snow Light Snow
2:27 PM 28.4 °F 18.0 °F 24.8 °F 86% 29.16 in 9.0 mi ENE 12.7 mph 18.4 mph 0.00 in Snow Light Snow
3:01 PM 28.9 °F 21.9 °F 24.1 °F 82% 29.28 in 10.0 mi East 6.9 mph - 0.00 in   Overcast
3:58 PM 30.2 °F 21.9 °F 24.8 °F 80% 29.13 in 10.0 mi ENE 9.2 mph - N/A   Overcast
4:01 PM 30.0 °F 20.5 °F 24.1 °F 79% 29.26 in 10.0 mi ENE 11.5 mph - N/A   Overcast
4:59 PM 30.2 °F 21.3 °F 24.8 °F 80% 29.12 in 9.0 mi East 10.4 mph 19.6 mph 0.00 in Snow Light Snow
5:01 PM 30.0 °F 21.1 °F 24.1 °F 79% 29.24 in 9.0 mi East 10.4 mph 19.6 mph 0.00 in Snow Light Snow
5:29 PM 28.4 °F 20.4 °F 24.8 °F 86% 29.11 in 9.0 mi East 8.1 mph - 0.00 in Snow Light Snow
6:01 PM 28.0 °F 20.8 °F 25.0 °F 88% 29.24 in 9.0 mi East 6.9 mph - 0.00 in Snow Light Snow
7:01 PM 27.0 °F 21.6 °F 24.1 °F 89% 29.24 in 9.0 mi East 4.6 mph - 0.00 in Snow Light Snow
8:01 PM 26.1 °F 19.4 °F 24.1 °F 92% 29.24 in 9.0 mi ENE 5.8 mph - 0.00 in Snow Light Snow
9:01 PM 26.1 °F 20.5 °F 24.1 °F 92% 29.23 in 9.0 mi East 4.6 mph - 0.00 in Snow Light Snow
9:12 PM 26.6 °F 20.0 °F 24.8 °F 93% 29.10 in 9.0 mi East 5.8 mph - 0.00 in Snow Light Snow
9:28 PM 26.6 °F 19.1 °F 24.8 °F 93% 29.11 in 9.0 mi ENE 6.9 mph - 0.00 in Snow Light Snow
9:54 PM 26.6 °F 18.2 °F 24.8 °F 93% 29.11 in 8.0 mi ENE 8.1 mph - 0.00 in Snow Light Snow
10:01 PM 26.1 °F 17.6 °F 24.1 °F 92% 29.24 in 9.0 mi ENE 8.1 mph - 0.00 in Snow Light Snow
10:25 PM 26.6 °F 18.2 °F 24.8 °F 93% 29.11 in 9.0 mi East 8.1 mph - 0.00 in   Overcast
11:01 PM 25.0 °F 17.1 °F 24.1 °F 96% 29.24 in 10.0 mi East 6.9 mph - 0.00 in   Overcast